Weather in Pokosnoe

Russia / Irkutsk Oblast     55°31′19″N   101°03′00″E
temp.,
°C
wind,
m/s
gust,
m/s
humid.,
%
clouds,
%
prec.,
mm/h
press.,
hPa
HPBL,
m
16 may, sun
sun1623:00+11w81672100 0.0 1010935
02:00+9w71690100 2.7 10091115
05:00+8nw5994100 5.2 1009657
08:00+5nw488544 6.1 1014773
11:00+8nw575463 0.0 10141341
14:00+11wnw5839100 0.0 10131703
17:00+12nw5837100 0.0 10121680
20:00+9nnw2452100 0.0 1011212
17 may, mon
mon1723:00+7nw1165100 0.1 101020
02:00+5wsw2381100 0.8 1009229
05:00+3w379183 0.2 1010308
08:00+6nw45667 0.2 1011470
11:00+9nw573554 0.0 10111858
14:00+11nw682985 0.0 10112294
17:00+11nw692810 0.0 10112630
20:00+9nw58375 0.0 10121207
18 may, tue
tue1823:00+4wnw22545 0.0 101415
02:00+2w226129 0.0 101413
05:00+1wsw2167100 0.0 101314
08:00+5w3552100 0.0 1012277
11:00+9w4536100 0.0 10101777
14:00+10w4537100 0.0 10081774
17:00+10wsw4446100 0.0 10061686
20:00+8wsw3470100 0.0 1004541
19 may, wed
wed1923:00+6wsw2387100 0.1 100467
02:00+4wnw1192100 0.1 100310
05:00+3nnw1193100 0.0 100313
08:00+6n2275100 0.0 1004345
11:00+9ne2337100 0.0 10041335
14:00+12sse1231100 0.0 10032206
17:00+13sw3333100 0.0 10022241
20:00+11ssw2349100 0.0 1002273
20 may, thu
thu2023:00+7sse2373100 0.4 100362
02:00+6ne4767100 0.8 1003213
05:00+3ne51059100 0.0 1004286
08:00+4ene61147100 0.0 1004550
11:00+8ene7837100 0.0 1004986
14:00+11ne7732100 0.0 10031590
17:00+10nne71036100 0.0 1003870
20:00+9nne71337100 0.0 1005710